Tracking 28790 objects as of 19-Apr-2024
HD Live streaming from Space Station
objects crossing your sky now

FENGYUN 1C DEB

Track FENGYUN 1C DEB now!
10-day predictions


NORAD ID: 30629
Int'l Code: 1999-025ANL
Perigee: 760.7 km
Apogee: 775.9 km
Inclination: 99.3 °
Period: 100.1 minutes
Semi major axis: 7139 km
RCS: 0.0133 m2 (small)
Launch date: May 10, 1999
Source: People's Republic of China (PRC)
Launch site: Taiyaun Space Center, China (TSC)

Note: This is SATELLITE DEBRIS
Your satellite tracking list
Your tracking list is empty




NASA's NSSDC Master Catalog

Two Line Element Set (TLE):
1 30629U 99025ANL 24109.77703701  .00018267  00000-0  58913-2 0  9995
2 30629  99.2749 140.7010 0010642 169.7785 250.1266 14.39200875891549
Source of the keplerian elements: AFSPC